Location: Plymouth
(43.7570°N, 71.6890°W)
Time: 23:19:46
(UTC-05:00)

Daily predictions for brighter satellites

Satellite Brightness Start Highest point End
(mag) Time Altitude Azimuth Time Altitude Azimuth Time Altitude Azimuth
FALCON 9 R/B 4.0 17:30:45 10° WSW 17:36:03 47° SSE 17:53:53 10° E
Okean 3 3.7 17:50:00 10° N 17:54:03 45° ENE 17:58:04 10° SSE
EO 1 Del DPAF 3.9 17:52:38 10° NNE 17:56:10 34° E 17:59:38 10° SSE
CENTAUR R/B 2.7 17:51:59 10° SSW 17:57:44 52° ESE 18:04:16 10° NE
Cosmos 1437 Rocket 4.1 17:58:16 10° SE 18:01:19 21° E 18:04:25 10° NE
Landsat 4 3.9 17:57:53 10° NNE 18:01:32 48° E 18:05:11 10° S
Lacrosse 5 4.2 17:57:36 10° WNW 18:01:47 26° SW 18:05:57 10° S
Cosmos 1674 Rocket 3.5 17:58:23 10° N 18:02:44 72° E 18:07:02 10° SSE
USA 267 4.4 17:59:10 10° ENE 18:04:39 29° N 18:10:07 10° NW
Cosmos 921 Rocket 3.7 18:01:33 10° N 18:05:45 36° ENE 18:09:53 10° SE
Gbstr 26 Del rocket 4.4 18:04:08 10° S 18:06:35 17° SE 18:08:57 11° E
Cosmos 1908 Rocket 3.7 18:09:16 10° S 18:13:36 51° E 18:17:56 10° NNE
YAOGAN 1 4.0 18:11:20 10° S 18:15:27 44° W 18:19:37 10° NNW
Cosmos 2034 Rocket 4.2 18:12:00 10° N 18:18:12 50° ENE 18:24:21 10° SSE
Cosmos 1733 Rocket 3.7 18:13:58 10° SSW 18:18:13 58° W 18:22:30 10° N
FengYun 1-2 T 4.2 18:14:19 10° SSE 18:19:42 60° ENE 18:25:06 10° N
FENGYUN 3A 4.2 18:14:38 10° S 18:19:59 64° W 18:25:23 10° NNW
COSMOS 2455 4.0 18:20:39 10° SSE 18:24:55 20° ESE 18:28:22 13° ENE
Iridium 4 Rocket 3.2 18:20:46 10° N 18:25:33 58° E 18:29:55 10° SSE
Cosmos 1633 2.4 18:22:57 10° S 18:26:31 87° E 18:30:07 10° N
Cosmos 158 Rocket 3.8 18:23:06 10° SSW 18:27:59 88° WNW 18:32:53 10° NNE
Cosmos 2237 Rocket 4.3 18:23:33 10° NW 18:28:22 30° WSW 18:33:11 10° SSW
Cosmos 2227 Rocket 3.5 18:23:23 10° SW 18:28:43 42° WNW 18:34:07 10° NNE
ATLAS 3B R/B 4.3 18:23:03 10° W 18:29:14 31° NW 18:35:16 10° NNE
SL-16 R/B 2.6 18:28:31 10° NNW 18:34:09 67° WSW 18:39:44 10° SSE
Cosmos 1452 Rocket 4.4 18:30:32 10° NNW 18:35:40 54° WSW 18:40:45 10° S
Cosmos 1975 Rocket 3.2 18:34:40 10° N 18:39:02 52° ENE 18:43:23 10° SSE
Cosmos 1048 Rocket 4.0 18:35:24 10° SSW 18:40:43 81° ESE 18:46:01 10° NNE
Cosmos 2297 Rocket 3.6 18:37:05 10° SW 18:42:20 39° WNW 18:47:39 10° NNE
Tiangong 2 4.1 18:42:02 10° SW 18:43:10 11° SW 18:44:18 10° SSW
ERS-2 2.1 18:40:12 10° SSE 18:43:52 90° ESE 18:47:35 10° NNW
FREGAT/IRIS 2.5 18:41:15 10° S 18:44:13 84° W 18:47:12 10° NNW
H-2A R/B 3.3 18:41:15 10° S 18:45:07 61° W 18:49:00 10° NNW
SPOT 3 Rocket 4.5 18:43:11 10° S 18:48:15 52° W 18:53:22 10° NNW
Cosmos 44 Rocket 4.5 18:43:27 10° NW 18:48:16 46° WSW 18:53:10 10° S
SJ-6B 2.7 18:45:35 10° SSE 18:49:19 62° ENE 18:53:09 10° N
Resurs 01 Rocket 2.3 18:51:54 28° E 18:52:57 32° ENE 18:56:53 10° N
Cosmos 1603 3.7 18:47:21 10° NNW 18:52:58 62° ENE 18:57:46 14° SE
ATLAS CENTAUR R/B 2.6 18:50:11 10° NNW 18:53:37 25° NE 18:54:03 24° NE
CZ-4C R/B 3.4 18:48:20 10° NNW 18:54:50 39° NE 18:58:39 25° E
Meteor 1-13 Rocket 4.2 18:50:15 10° N 18:55:42 55° ENE 19:01:05 10° SSE
SL-8 R/B 4.0 18:55:00 10° W 18:59:44 62° NNW 19:02:10 28° NE
ARGOS Delta rocket 3.7 18:56:59 10° NNE 19:01:47 60° E 19:06:17 10° S
Okean 1 4.0 18:59:34 10° NNW 19:03:30 55° W 19:07:21 10° S
CZ-2D R/B 3.1 19:03:01 10° SSE 19:06:55 86° ENE 19:10:51 10° NNW
Cosmos 1536 Rocket 4.5 19:05:25 10° N 19:08:29 30° NE 19:08:29 30° NE
Cosmos 2263 Rocket 2.8 19:04:39 10° SSE 19:09:12 33° ESE 19:09:12 33° ESE
SeaSat 1 2.3 19:07:34 24° SE 19:10:32 72° ENE 19:15:29 10° NNW
Cosmos 1782 Rocket 3.9 19:07:11 10° SSW 19:11:35 66° W 19:15:59 10° N
USA 215 3.3 19:08:39 24° ENE 19:12:43 59° SE 19:19:08 10° SSW
Tsikada Rocket 4.0 19:09:50 10° S 19:16:16 87° W 19:22:43 10° N
Cosmos 1602 4.1 19:12:36 10° SSW 19:16:29 66° W 19:20:22 10° N
USA 186 3.0 19:21:16 34° N 19:21:16 34° N 19:23:17 10° N
Cosmos 1184 Rocket 4.2 19:19:43 10° N 19:21:32 30° N 19:21:32 30° N
CZ-3C R/B 4.4 19:21:39 10° S 19:24:34 13° SE 19:24:34 13° SE
Envisat 3.1 19:20:24 10° S 19:25:29 76° WSW 19:30:35 10° NNW
Meteor 2-4 Rocket 3.7 19:25:33 10° N 19:31:23 90° NNE 19:36:06 15° S
Meteor 1-4 Rocket 3.0 19:30:17 10° SSW 19:33:28 58° WSW 19:33:28 58° WSW
Cosmos 2227 4.5 19:28:43 10° SSW 19:34:25 69° WNW 19:40:07 10° NNE
Okean 2 Rocket 3.5 19:30:34 10° SSW 19:34:54 60° W 19:39:17 10° N
Meteor 1-5 Rocket 4.2 19:29:25 10° S 19:35:14 66° E 19:41:11 10° NNE
Thor Agena Rocket 3.8 19:31:45 10° N 19:36:48 64° WNW 19:41:47 10° SSW
Cosmos 494 Rocket 3.9 19:32:42 10° SSW 19:37:55 85° WNW 19:43:08 10° NNE
Cosmos 1110 Rocket 4.4 19:35:27 10° NNW 19:40:40 61° WSW 19:43:58 23° S
Meteor 1-11 Rocket 3.8 19:38:39 10° SSW 19:44:13 75° W 19:49:58 10° N
USA 267 3.5 19:45:34 46° ENE 19:46:48 52° NNE 19:53:06 10° NW
CENTAUR R/B 3.8 19:42:51 10° WSW 19:48:37 38° NW 19:55:12 10° NNE
NOAA 11 4.4 19:53:19 56° NNE 19:53:19 56° NNE 19:57:47 10° N
Gbstr 26 Del rocket 4.0 19:49:09 10° WSW 19:51:32 38° WSW 19:51:32 38° WSW
Cosmos 2279 Rocket 3.9 19:48:40 10° N 19:54:40 66° ENE 19:54:40 66° ENE
Cosmos 1943 3.3 19:52:53 10° NNW 19:58:33 73° WSW 19:59:20 63° SSW
Cosmos 1939 Rocket 4.1 20:02:39 41° WNW 20:02:39 41° WNW 20:05:45 10° NNW
H-2A R/B 4.0 20:09:18 18° NNE 20:09:18 18° NNE 20:10:53 10° N
COSMOS 2455 3.0 20:04:14 10° SW 20:10:14 70° WNW 20:11:40 52° N
Spot 2 Rocket 4.2 20:15:08 51° WSW 20:15:17 51° W 20:20:14 10° NNW
Resurs 01 Rocket 3.6 20:29:28 25° W 20:29:28 25° W 20:33:08 10° NW
ATLAS CENTAUR R/B 3.8 20:28:43 10° NW 20:30:19 22° WNW 20:30:19 22° WNW
CZ-4C R/B 3.2 20:36:41 10° NW 20:43:50 62° WSW 20:43:52 62° WSW
Cosmos 2263 Rocket 3.9 20:48:16 10° SW 20:51:05 26° WSW 20:51:05 26° WSW
USA 215 3.9 20:56:01 50° NW 20:56:01 50° NW 21:01:55 10° WSW
